SCP
2 2 2 3 3 2 1 1 0 1 0 0 0 0 0 0 0 0 0 0 0 0 0 0 0 0 0 0 0 0 0 0 0 0 0 0 0 0
4 3 3 4 3 2 1 1 1 0 1 0 0 0 0 0 0 0 0 0 0 0 0 0 0 0 0 0 0 0 0 0 0 0 0 0 0 0
4 5 4 4 3 1 1 1 0 1 1 0 1 0 0 0 0 0 0 0 0 0 0 0 0 0 0 0 -0 -0 -0 -0 -0 0 0 0 0 0
4 5 3 3 2 2 1 1 1 0 1 0 0 0 0 0 0 0 0 0 0 0 0 0 0 0 0 0 0 -0 -0 -0 0 0 0 0 0 0
4 4 2 2 2 2 1 1 1 1 0 0 0 0 0 0 0 0 0 0 0 0 0 0 0 0 0 0 0 0 -0 0 0 0 0 0 0 0
3 3 2 2 2 2 1 1 1 1 0 0 0 0 0 0 0 0 0 0 0 0 0 0 0 0 0 0 0 0 0 0 0 0 0 0 0 0
3 2 2 2 1 2 2 1 1 0 0 0 0 0 0 0 0 0 0 0 0 0 0 0 0 0 0 0 0 0 0 0 0 0 -0 0 0 0
2 2 2 1 1 1 2 1 0 0 0 0 0 0 0 0 0 0 0 0 0 0 0 0 0 0 0 0 0 0 -0 0 0 -0 0 0 0 0
2 2 1 1 1 0 0 0 0 0 0 0 0 0 0 0 0 0 0 0 0 0 0 0 0 0 0 0 0 0 0 -0 -0 -0 0 0 -0 -0
2 1 1 0 0 0 0 0 0 0 0 0 0 0 0 0 0 0 0 0 0 0 0 0 0 0 0 0 0 0 -0 -0 -0 0 0 0 0 0
1 1 1 0 0 0 0 0 0 0 0 0 0 0 0 0 0 0 0 0 0 0 0 0 0 0 0 0 0 0 0 -0 0 0 -0 0 -0 0
2 1 1 0 0 0 0 0 0 0 0 0 0 0 0 0 0 0 0 0 0 0 0 0 0 0 0 0 0 0 0 0 0 -0 0 0 0 0
0 0 0 0 0 0 0 0 0 0 0 0 0 0 0 0 0 0 0 0 0 0 0 0 0 0 0 0 0 0 0 0 0 -0 0 0 -0 0
0 0 0 0 0 0 0 0 0 0 0 0 0 0 0 0 0 0 0 0 0 0 0 0 0 0 0 0 0 0 0 0 0 0 0 0 0 0
0 0 0 0 0 0 0 0 0 0 0 0 0 0 0 0 0 0 0 0 0 0 0 0 0 0 0 0 0 0 0 0 0 0 0 0 0 0
0 0 0 0 0 0 0 0 0 0 0 0 0 0 0 0 0 0 0 0 0 0 0 0 0 0 0 0 0 0 0 0 0 0 0 0 0 0
0 0 0 0 0 0 0 0 0 0 0 0 -0 0 -0 0 0 0 0 0 0 0 0 0 0 0 0 0 0 0 0 0 0 0 0 0 0 0
0 0 0 0 0 0 0 0 0 0 0 0 0 0 -0 -0 0 0 0 0 0 -0 0 0 0 0 0 0 0 0 0 0 0 0 0 0 0 0
0 0 0 0 0 0 0 0 0 -0 0 0 0 0 0 -0 -0 0 0 0 0 0 0 0 0 0 0 0 0 0 0 0 0 0 0 0 0 0
0 0 0 0 0 0 0 0 0 0 0 -0 -0 0 0 0 0 0 0 0 0 0 0 0 0 0 0 0 0 0 0 0 0 0 0 0 0 0
0 0 0 0 0 0 -0 -0 0 0 -0 0 -0 -0 0 0 0 0 0 0 0 0 0 0 0 0 0 0 0 0 0 0 0 0 0 0 0 0
0 0 0 0 0 0 0 0 0 0 0 0 0 -0 -0 -0 -0 -0 -0 0 0 0 0 0 0 0 0 0 0 0 0 0 0 0 0 0 0 0
0 0 0 0 0 0 0 0 0 0 0 0 0 0 0 0 -0 -0 0 0 0 0 0 0 0 0 0 0 0 0 0 0 0 0 0 0 0 0
Wind_Speed_500mb
74 83 80 78 73 56 67 66 65 54 38 32 27 30 31 35 35 37 38 38 37 31 26 26 28 31 35 35 32 33 37 38 38 32 33 33 36 42
73 78 79 71 70 60 68 61 66 66 47 26 28 32 33 38 41 41 39 38 39 35 28 24 24 25 31 32 31 34 37 35 33 31 30 28 33 36
73 77 74 72 67 59 62 66 65 62 44 35 28 37 37 39 37 37 40 35 34 30 27 22 21 23 25 28 31 33 33 32 28 30 26 23 19 25
79 77 77 70 62 53 52 63 57 43 41 37 34 36 34 29 32 35 36 30 30 18 21 23 25 27 27 30 30 29 29 30 31 31 24 20 7 10
83 75 78 65 60 51 55 58 45 39 41 46 39 36 29 26 29 29 28 27 23 18 21 24 27 28 29 29 30 28 30 31 33 30 28 22 22 8
72 75 72 64 63 55 55 59 47 43 39 43 35 31 27 28 25 19 15 6 8 12 18 25 24 27 32 30 32 31 30 31 32 30 29 24 23 22
74 70 67 62 55 54 52 53 52 49 49 44 41 39 35 32 26 17 9 12 9 9 15 20 21 23 28 33 34 35 33 34 34 36 31 29 24 20
76 75 70 57 56 54 53 51 47 57 49 42 43 42 36 29 21 21 17 21 16 16 15 19 21 23 26 29 33 36 36 39 38 40 37 27 27 26
78 71 65 58 56 48 53 51 44 48 43 43 45 40 34 28 25 24 24 19 16 11 20 22 20 20 24 27 30 35 39 41 46 48 40 31 31 29
70 72 64 53 50 46 50 46 46 42 37 42 39 34 29 28 30 25 24 15 21 15 19 24 24 24 20 24 27 31 35 41 49 51 35 32 30 30
71 61 61 53 51 49 49 44 43 40 42 40 37 32 28 24 27 29 38 31 27 23 28 25 25 23 20 18 17 25 32 35 40 37 32 29 29 33
60 61 50 48 45 42 38 34 36 32 32 30 30 28 28 28 28 28 31 33 28 22 25 34 24 19 11 17 17 21 28 38 29 32 35 30 30 33
57 58 50 43 43 41 37 36 35 30 30 29 31 30 29 30 32 31 34 36 33 26 17 25 21 18 15 5 12 12 25 26 31 31 36 35 33 35
58 54 48 46 44 40 31 43 40 33 31 30 28 28 28 27 27 29 33 33 34 23 11 15 12 11 23 12 6 13 22 28 32 40 36 34 37 38
62 50 46 50 38 34 38 31 32 28 26 26 28 26 24 23 25 26 29 32 32 22 14 13 10 6 14 19 13 13 15 19 29 35 39 42 43 44
56 46 45 35 29 32 32 30 30 25 20 16 18 22 25 25 24 23 31 26 21 21 14 10 11 16 13 17 18 21 21 18 16 21 27 38 42 41
54 48 45 33 35 35 30 27 25 25 24 25 20 19 21 20 20 19 21 22 20 16 16 11 6 12 24 17 18 14 18 22 23 22 27 30 32 36
59 53 42 37 39 38 34 30 29 29 23 21 23 18 15 18 21 21 17 13 21 17 11 7 5 6 8 13 13 14 15 20 18 22 28 32 32 35
48 44 39 40 41 39 29 26 25 23 19 20 21 20 16 22 22 18 11 8 9 13 11 13 16 15 12 12 16 21 15 18 17 17 18 22 38 22
36 39 40 40 41 36 33 31 28 21 21 22 19 12 17 18 21 21 15 13 12 12 11 12 15 17 19 15 8 6 6 9 15 18 21 20 15 18
39 40 38 36 41 40 34 27 22 21 18 18 18 16 13 18 19 19 17 14 12 13 15 15 15 16 15 12 11 12 10 10 14 17 19 24 25 26
44 41 43 44 43 39 31 27 23 21 18 18 15 14 18 18 19 20 16 15 15 16 17 14 12 13 13 17 14 13 17 25 23 21 23 25 29 22
46 46 48 47 42 33 28 25 25 23 22 17 16 16 16 17 15 14 16 16 16 14 14 13 15 12 6 10 11 13 13 17 22 25 21 22 28 35
Wind_Direction_500mb
269 265 259 260 260 254 246 250 257 254 251 258 265 269 229 233 240 253 277 283 283 284 276 274 251 238 228 231 236 225 223 229 237 234 241 250 264 270
270 267 262 261 262 255 244 251 255 261 269 262 272 250 224 225 238 262 277 281 278 271 269 269 244 230 220 227 224 219 224 232 238 237 243 260 277 285
270 263 262 262 262 259 243 245 254 258 259 250 244 228 231 236 251 270 284 284 278 264 259 246 226 214 214 218 219 222 226 234 234 236 240 256 293 312
264 261 261 262 258 250 242 244 249 250 246 231 228 221 225 247 270 285 286 281 272 264 250 233 218 217 221 217 220 224 227 231 234 233 234 236 241 41
262 260 256 253 256 241 236 242 243 237 236 238 238 229 239 262 285 284 288 282 250 247 227 216 214 220 222 221 221 226 224 230 237 237 226 226 223 192
262 255 253 255 251 238 233 238 243 231 226 226 233 240 250 271 281 281 288 244 253 228 214 213 218 222 221 224 224 224 226 228 228 226 221 226 222 224
257 254 250 248 237 234 237 240 238 227 222 230 239 241 250 260 277 257 242 220 219 212 208 211 219 222 223 226 226 226 227 226 222 217 225 227 223 222
252 248 247 234 229 233 238 241 237 223 223 229 236 244 253 256 268 236 220 220 215 224 209 210 219 224 229 233 233 232 232 223 218 213 217 229 236 232
247 246 230 227 222 235 236 234 227 223 229 241 242 250 252 246 248 239 227 236 240 235 205 220 229 227 235 237 237 234 229 228 216 213 220 235 236 236
241 229 223 223 220 226 237 235 221 219 230 238 242 244 244 242 246 249 235 223 205 218 212 228 241 244 240 249 234 223 224 216 213 218 221 234 239 231
229 220 213 218 229 226 233 228 233 234 236 240 240 241 243 240 230 231 214 212 215 214 215 222 232 251 250 242 228 228 215 233 224 218 226 229 235 238
217 211 214 219 221 216 214 217 221 224 226 227 245 242 232 227 224 231 229 217 205 208 230 224 232 245 233 237 241 241 214 203 219 220 223 231 241 246
203 207 204 205 205 203 215 220 224 226 226 228 228 238 230 227 221 224 215 216 209 222 258 226 232 242 221 281 226 195 200 209 223 229 235 240 251 256
204 211 201 194 197 212 218 222 227 228 223 225 233 233 227 216 216 217 213 205 207 215 209 182 226 239 208 213 223 236 235 239 248 242 250 242 252 259
209 208 188 193 206 229 228 215 215 212 216 224 233 225 212 214 212 220 214 209 206 205 205 191 210 190 200 232 249 262 273 268 257 253 252 253 258 264
200 178 187 191 198 207 199 204 210 205 207 219 208 206 197 197 204 210 199 193 191 201 204 199 221 213 229 241 251 262 264 259 274 266 262 257 256 258
172 178 181 184 188 181 180 186 179 176 172 161 162 164 179 192 190 188 190 206 193 201 221 202 212 238 232 253 268 282 271 277 279 276 272 280 274 269
180 177 176 183 178 170 163 157 154 160 168 166 165 161 153 161 161 155 162 164 184 199 235 213 181 224 246 233 254 265 281 281 275 275 277 278 280 277
178 177 181 178 175 164 155 155 159 161 162 168 165 158 162 164 166 170 165 162 202 191 206 214 217 223 238 270 277 273 278 259 264 277 286 283 292 258
185 182 177 179 170 161 155 148 150 150 146 146 148 167 187 191 192 195 197 193 201 210 216 205 225 241 274 277 273 241 275 279 265 286 290 295 289 276
171 167 164 156 152 149 145 143 150 147 144 147 155 167 177 194 205 199 193 206 211 214 213 229 254 272 257 213 214 240 258 276 286 295 298 298 293 288
155 155 148 145 147 149 153 154 162 166 164 169 174 176 179 184 183 195 208 217 224 236 256 252 231 230 231 242 259 258 267 283 283 290 293 284 283 275
149 145 147 145 150 156 154 152 161 171 182 190 181 181 172 169 179 193 206 204 218 212 219 238 247 233 221 255 243 260 275 289 295 304 308 312 314 307
Wind_Speed_850mb
74 83 80 78 73 56 67 66 65 54 38 32 27 30 31 35 35 37 38 38 37 31 26 26 28 31 35 35 32 33 37 38 38 32 33 33 36 42
73 78 79 71 70 60 68 61 66 66 47 26 28 32 33 38 41 41 39 38 39 35 28 24 24 25 31 32 31 34 37 35 33 31 30 28 33 36
73 77 74 72 67 59 62 66 65 62 44 35 28 37 37 39 37 37 40 35 34 30 27 22 21 23 25 28 31 33 33 32 28 30 26 23 19 25
79 77 77 70 62 53 52 63 57 43 41 37 34 36 34 29 32 35 36 30 30 18 21 23 25 27 27 30 30 29 29 30 31 31 24 20 7 10
83 75 78 65 60 51 55 58 45 39 41 46 39 36 29 26 29 29 28 27 23 18 21 24 27 28 29 29 30 28 30 31 33 30 28 22 22 8
72 75 72 64 63 55 55 59 47 43 39 43 35 31 27 28 25 19 15 6 8 12 18 25 24 27 32 30 32 31 30 31 32 30 29 24 23 22
74 70 67 62 55 54 52 53 52 49 49 44 41 39 35 32 26 17 9 12 9 9 15 20 21 23 28 33 34 35 33 34 34 36 31 29 24 20
76 75 70 57 56 54 53 51 47 57 49 42 43 42 36 29 21 21 17 21 16 16 15 19 21 23 26 29 33 36 36 39 38 40 37 27 27 26
78 71 65 58 56 48 53 51 44 48 43 43 45 40 34 28 25 24 24 19 16 11 20 22 20 20 24 27 30 35 39 41 46 48 40 31 31 29
70 72 64 53 50 46 50 46 46 42 37 42 39 34 29 28 30 25 24 15 21 15 19 24 24 24 20 24 27 31 35 41 49 51 35 32 30 30
71 61 61 53 51 49 49 44 43 40 42 40 37 32 28 24 27 29 38 31 27 23 28 25 25 23 20 18 17 25 32 35 40 37 32 29 29 33
60 61 50 48 45 42 38 34 36 32 32 30 30 28 28 28 28 28 31 33 28 22 25 34 24 19 11 17 17 21 28 38 29 32 35 30 30 33
57 58 50 43 43 41 37 36 35 30 30 29 31 30 29 30 32 31 34 36 33 26 17 25 21 18 15 5 12 12 25 26 31 31 36 35 33 35
58 54 48 46 44 40 31 43 40 33 31 30 28 28 28 27 27 29 33 33 34 23 11 15 12 11 23 12 6 13 22 28 32 40 36 34 37 38
62 50 46 50 38 34 38 31 32 28 26 26 28 26 24 23 25 26 29 32 32 22 14 13 10 6 14 19 13 13 15 19 29 35 39 42 43 44
56 46 45 35 29 32 32 30 30 25 20 16 18 22 25 25 24 23 31 26 21 21 14 10 11 16 13 17 18 21 21 18 16 21 27 38 42 41
54 48 45 33 35 35 30 27 25 25 24 25 20 19 21 20 20 19 21 22 20 16 16 11 6 12 24 17 18 14 18 22 23 22 27 30 32 36
59 53 42 37 39 38 34 30 29 29 23 21 23 18 15 18 21 21 17 13 21 17 11 7 5 6 8 13 13 14 15 20 18 22 28 32 32 35
48 44 39 40 41 39 29 26 25 23 19 20 21 20 16 22 22 18 11 8 9 13 11 13 16 15 12 12 16 21 15 18 17 17 18 22 38 22
36 39 40 40 41 36 33 31 28 21 21 22 19 12 17 18 21 21 15 13 12 12 11 12 15 17 19 15 8 6 6 9 15 18 21 20 15 18
39 40 38 36 41 40 34 27 22 21 18 18 18 16 13 18 19 19 17 14 12 13 15 15 15 16 15 12 11 12 10 10 14 17 19 24 25 26
44 41 43 44 43 39 31 27 23 21 18 18 15 14 18 18 19 20 16 15 15 16 17 14 12 13 13 17 14 13 17 25 23 21 23 25 29 22
46 46 48 47 42 33 28 25 25 23 22 17 16 16 16 17 15 14 16 16 16 14 14 13 15 12 6 10 11 13 13 17 22 25 21 22 28 35
Wind_Direction_850mb
269 265 259 260 260 254 246 250 257 254 251 258 265 269 229 233 240 253 277 283 283 284 276 274 251 238 228 231 236 225 223 229 237 234 241 250 264 270
270 267 262 261 262 255 244 251 255 261 269 262 272 250 224 225 238 262 277 281 278 271 269 269 244 230 220 227 224 219 224 232 238 237 243 260 277 285
270 263 262 262 262 259 243 245 254 258 259 250 244 228 231 236 251 270 284 284 278 264 259 246 226 214 214 218 219 222 226 234 234 236 240 256 293 312
264 261 261 262 258 250 242 244 249 250 246 231 228 221 225 247 270 285 286 281 272 264 250 233 218 217 221 217 220 224 227 231 234 233 234 236 241 41
262 260 256 253 256 241 236 242 243 237 236 238 238 229 239 262 285 284 288 282 250 247 227 216 214 220 222 221 221 226 224 230 237 237 226 226 223 192
262 255 253 255 251 238 233 238 243 231 226 226 233 240 250 271 281 281 288 244 253 228 214 213 218 222 221 224 224 224 226 228 228 226 221 226 222 224
257 254 250 248 237 234 237 240 238 227 222 230 239 241 250 260 277 257 242 220 219 212 208 211 219 222 223 226 226 226 227 226 222 217 225 227 223 222
252 248 247 234 229 233 238 241 237 223 223 229 236 244 253 256 268 236 220 220 215 224 209 210 219 224 229 233 233 232 232 223 218 213 217 229 236 232
247 246 230 227 222 235 236 234 227 223 229 241 242 250 252 246 248 239 227 236 240 235 205 220 229 227 235 237 237 234 229 228 216 213 220 235 236 236
241 229 223 223 220 226 237 235 221 219 230 238 242 244 244 242 246 249 235 223 205 218 212 228 241 244 240 249 234 223 224 216 213 218 221 234 239 231
229 220 213 218 229 226 233 228 233 234 236 240 240 241 243 240 230 231 214 212 215 214 215 222 232 251 250 242 228 228 215 233 224 218 226 229 235 238
217 211 214 219 221 216 214 217 221 224 226 227 245 242 232 227 224 231 229 217 205 208 230 224 232 245 233 237 241 241 214 203 219 220 223 231 241 246
203 207 204 205 205 203 215 220 224 226 226 228 228 238 230 227 221 224 215 216 209 222 258 226 232 242 221 281 226 195 200 209 223 229 235 240 251 256
204 211 201 194 197 212 218 222 227 228 223 225 233 233 227 216 216 217 213 205 207 215 209 182 226 239 208 213 223 236 235 239 248 242 250 242 252 259
209 208 188 193 206 229 228 215 215 212 216 224 233 225 212 214 212 220 214 209 206 205 205 191 210 190 200 232 249 262 273 268 257 253 252 253 258 264
200 178 187 191 198 207 199 204 210 205 207 219 208 206 197 197 204 210 199 193 191 201 204 199 221 213 229 241 251 262 264 259 274 266 262 257 256 258
172 178 181 184 188 181 180 186 179 176 172 161 162 164 179 192 190 188 190 206 193 201 221 202 212 238 232 253 268 282 271 277 279 276 272 280 274 269
180 177 176 183 178 170 163 157 154 160 168 166 165 161 153 161 161 155 162 164 184 199 235 213 181 224 246 233 254 265 281 281 275 275 277 278 280 277
178 177 181 178 175 164 155 155 159 161 162 168 165 158 162 164 166 170 165 162 202 191 206 214 217 223 238 270 277 273 278 259 264 277 286 283 292 258
185 182 177 179 170 161 155 148 150 150 146 146 148 167 187 191 192 195 197 193 201 210 216 205 225 241 274 277 273 241 275 279 265 286 290 295 289 276
171 167 164 156 152 149 145 143 150 147 144 147 155 167 177 194 205 199 193 206 211 214 213 229 254 272 257 213 214 240 258 276 286 295 298 298 293 288
155 155 148 145 147 149 153 154 162 166 164 169 174 176 179 184 183 195 208 217 224 236 256 252 231 230 231 242 259 258 267 283 283 290 293 284 283 275
149 145 147 145 150 156 154 152 161 171 182 190 181 181 172 169 179 193 206 204 218 212 219 238 247 233 221 255 243 260 275 289 295 304 308 312 314 307